sat.trackr.live / text

‹ back to catalog

STARLINK-32082

NORAD 60346 · 2024-136T

PAYLOAD ACTIVE UNKNOWN

§ Identity

Operator
Country
US
Launch date
2024-08-02
Launch site
AFETR
Launch vehicle
Mass (kg)
RCS (m²)

Purposes: comms

External: N2YO · Heavens-Above · Gunter

§ Orbital elements

Epoch: 2026-05-25T02:06:35.875008Z

Period
94.11 min
Inclination
53.1608°
Eccentricity
0.0001345
Mean motion
15.30200335 rev/d
Perigee alt
474.3 km
Apogee alt
476.1 km
Semi-major
6,853.4 km
B*
-1.5730e-5
RAAN
80.6456°
Arg perigee
90.5253°
Mean anomaly
269.5902°
Rev number
10,136

§ Raw data

STARLINK-320821 60346U 24136T   26145.08791522 -.00000825  00000+0 -15730-4 0  99932 60346  53.1608  80.6456 0001345  90.5253 269.5902 15.30200335101366

JSON: /api/v1/satellites/60346 · /tle

For live sub-satellite position, see the globe view (requires WebGL).

§ Visibility from observer

Set your observer location to see the next 7 days of passes ≥ 10°. The values pass through the URL so the page stays shareable.

No JS? Fill the form by hand. The geolocation button needs JavaScript.